Regional Weather Roundup
Issued by NWS

Home | Current Version | Previous Version | Graphics & Text | Print | Product List | Glossary On
Versions: 1 2 3 4 5 6 7 8 9 10 11 12 13 14 15 16 17 18 19 20 21 22 23 24 25 26 27 28 29 30 31 32 33 34 35 36 37 38 39 40 41 42 43 44 45 46 47 48 49 50
000
ASUS43 KMKX 130559
RWRWI

WISCONSIN REGIONAL WEATHER ROUNDUP
NATIONAL WEATHER SERVICE MILWAUKEE/SULLIVAN WI
1200 AM CST WED DEC 13 2017

NOTE: "FAIR" INDICATES FEW OR NO CLOUDS BELOW 12,000 FEET WITH NO
SIGNIFICANT WEATHER AND/OR OBSTRUCTIONS TO VISIBILITY.

WIZ001-002-006>008-014>016-023>028-130700-
NORTHWEST WISCONSIN

CITY           SKY/WX    TMP DP  RH WIND       PRES   REMARKS
SUPERIOR ARPT  CLOUDY    16  11  82 E3        29.67F
ASHLAND        CLOUDY    13   9  84 SE3       29.69F
6HR MIN TEMP:  12; 6HR MAX TEMP:  13; 6HR PCP:  0.02;

HAYWARD        CLOUDY    14   9  80 SE8       29.64F WCI   3
6HR MIN TEMP:  12; 6HR MAX TEMP:  14; 6HR PCP:  0.01;

SIREN          CLOUDY    17  12  80 SE9       29.62F WCI   6
CUMBERLAND     CLOUDY    14  10  85 SE12      29.64F WCI   0
RICE LAKE      CLOUDY    16  11  83 SE12      29.67F WCI   3
CHETEK         CLOUDY    15  11  82 SE9       29.67F WCI   3
LADYSMITH      CLOUDY    14  11  86 SE8       29.71F WCI   3
EAU CLAIRE     NOT AVBL
MENOMONIE      MOCLDY    19  13  78 E6        29.68F WCI  11
NEW RICHMOND   CLOUDY    21  16  80 SE9       29.61F WCI  11
OSCEOLA        CLOUDY    22  17  82 E9        29.63F WCI  12
$$

WIZ003>005-009-010-017-018-130700-
NORTH CENTRAL WISCONSIN

CITY           SKY/WX    TMP DP  RH WIND       PRES   REMARKS
MANITOWISH WTR FLURRIES   9   7  90 SE8       29.67F WCI  -3
ARBOR VITAE    FLURRIES  11   8  85 SE6       29.68F WCI   2
WOODRUFF       FLURRIES  11   8  85 SE6       29.68F WCI   2
RHINELANDER    FLURRIES  10   7  87 S3        29.69F
6HR MIN TEMP:  10; 6HR MAX TEMP:  11; 6HR PCP: TRACE;

EAGLE RIVER    LGT SNOW  10   4  76 S3        29.71F
LAND O LAKES   FLURRIES  10   4  78 S3        29.72F
PHILLIPS       FLURRIES  10   7  87 SE6       29.68F WCI   1
TOMAHAWK       FLURRIES  10   7  85 CALM      29.72F
MEDFORD        CLOUDY    11   9  91 SE7       29.69F FOG     WCI   1
MERRILL        FLURRIES  11   7  83 SE5       29.75F WCI   3
$$

WIZ029-030-035-036-043>047-130700-
CENTRAL WISCONSIN

CITY           SKY/WX    TMP DP  RH WIND       PRES   REMARKS
WAUSAU         FLURRIES  12   7  80 SE8       29.72F WCI   0
6HR MIN TEMP:  12; 6HR MAX TEMP:  12; 6HR PCP:  0.01;

MOSINEE        CLOUDY    12   9  85 SE6       29.76  WCI   3
MARSHFIELD     CLOUDY    14  11  87 SE8       29.70F WCI   3
6HR MIN TEMP:  13; 6HR MAX TEMP:  14; 6HR PCP: TRACE;

STEVENS POINT  CLOUDY    12   6  77 SE6       29.78F WCI   3
WAUPACA        FLURRIES  17   9  71 CALM      29.84F
WAUTOMA        FLURRIES  15   9  76 SE7       29.81F WCI   5
6HR MIN TEMP:  13; 6HR MAX TEMP:  15;

WISC RAPIDS    CLOUDY    15  10  80 SE8       29.76F WCI   4
6HR MIN TEMP:  14; 6HR MAX TEMP:  15; 6HR PCP: TRACE;

CAMP DOUGLAS   CLOUDY    19  12  72 SE8       29.75F WCI   9
6HR MIN TEMP:  17; 6HR MAX TEMP:  19; 6HR PCP: TRACE;

$$

WIZ011>013-019>022-031-037>040-048>050-130700-
NORTHEAST WISCONSIN

CITY           SKY/WX    TMP DP  RH WIND       PRES   REMARKS
ANTIGO         LGT SNOW  10   6  85 S7        29.74F WCI  -2
SHAWANO        CLOUDY    17   4  56 SW3       29.83F
OCONTO         CLOUDY    13   7  78 CALM      29.85F
STURGEON BAY   CLOUDY    14   7  73 SW5       29.83F WCI   6
6HR MIN TEMP:  13; 6HR MAX TEMP:  16;

GREEN BAY      CLOUDY    16   3  56 SW5       29.84F WCI   9
6HR MIN TEMP:  12; 6HR MAX TEMP:  16;

MANITOWOC      CLOUDY    15   4  61 W5        29.86F WCI   8
6HR MIN TEMP:   6; 6HR MAX TEMP:  15;

APPLETON       LGT SNOW  14   7  73 SW3       29.82F
CLINTONVILLE   NOT AVBL
OSHKOSH        LGT SNOW  16   9  74 S3        29.83F
6HR MIN TEMP:  14; 6HR MAX TEMP:  16; 6HR PCP: TRACE;

$$

WIZ032>034-041-042-053>061-130700-
SOUTHWEST WISCONSIN

CITY           SKY/WX    TMP DP  RH WIND       PRES   REMARKS
LA CROSSE      CLOUDY    26  16  65 S14       29.70F WCI  14
6HR MIN TEMP:  21; 6HR MAX TEMP:  26;

SPARTA         CLOUDY    23  13  65 S5        29.76F WCI  17
VIROQUA        CLOUDY    22  15  75 S8        29.73F WCI  12
BOSCOBEL       CLOUDY    27  13  55 S6        29.79F WCI  20
6HR MIN TEMP:  22; 6HR MAX TEMP:  27;

PRAIRIE DU CHI CLOUDY    29  15  56 S3        29.78F
PLATTEVILLE    CLOUDY    24  14  65 S9        29.81F WCI  14
$$

WIZ056-057-062-063-064-067-068-130700-
SOUTH CENTRAL WISCONSIN

CITY           SKY/WX    TMP DP  RH WIND       PRES   REMARKS
REEDSBURG      CLOUDY    20  10  64 SE6       29.79F WCI  12
BARABOO/DELLS  CLOUDY    20  11  67 SE3       29.80F
LONE ROCK      NOT AVBL
MINERAL POINT  CLOUDY    27  12  54 S8        29.79F WCI  18
MADISON        CLOUDY    21  10  62 S8        29.81F WCI  11
6HR MIN TEMP:  17; 6HR MAX TEMP:  21; 6HR PCP: TRACE;

MIDDLETON      CLOUDY    23  11  61 S7        29.83F WCI  14
WATERTOWN      FLURRIES  19   9  65 CALM      29.86F
MONROE         CLOUDY    23  10  58 S9        29.82F WCI  13
JANESVILLE     CLOUDY    23  10  58 S3        29.86F
$$

WIZ051-052-058>065-066-070>072-130700-
SOUTHEAST WISCONSIN

CITY           SKY/WX    TMP DP  RH WIND       PRES   REMARKS
MILWAUKEE      CLOUDY    20   4  50 SW5       29.87F WCI  13
6HR MIN TEMP:  19; 6HR MAX TEMP:  20;

WAUKESHA       CLOUDY    18   5  57 SW3       29.88F
MILWAUKEE/TIMM CLOUDY    19   1  45 CALM      29.88F
RACINE         CLOUDY    19   5  54 CALM      29.90F
6HR MIN TEMP:  16; 6HR MAX TEMP:  19;

BURLINGTON       N/A    N/A N/A N/A MISG        N/A
KENOSHA        CLOUDY    20   6  55 SW5       29.87F WCI  13
6HR MIN TEMP:  15; 6HR MAX TEMP:  20;

FOND DU LAC    LGT SNOW  17   6  62 S5        29.84F WCI  10
6HR MIN TEMP:  15; 6HR MAX TEMP:  17; 6HR PCP: TRACE;

SHEBOYGAN      CLOUDY    16   6  65 SW5       29.86F WCI   9
6HR MIN TEMP:  13; 6HR MAX TEMP:  16;

WEST BEND      CLOUDY    18   3  53 CALM      29.86F
JUNEAU         FLURRIES  16   7  66 S3        29.87F
$$

LSZ147-162-130700-
LAKE SUPERIOR

STATION/POSITION TIME  TEMP    WIND        PRES    WAVE
                       AIR SEA DIR/SP/G            HT/PER
                 (UTC) (F)     (DEG/KT/KT) (MB)    (FT/S)
DEVILS ISLAND    0500   16     170/  8/ 13 1008.1F
SAXON HARBOR     0540   15                 1005.8F
$$

LMZ867-665-643>646-130700-
LAKE MICHIGAN

STATION/POSITION TIME  TEMP    WIND        PRES    WAVE
                       AIR SEA DIR/SP/G            HT/PER
                 (UTC) (F)     (DEG/KT/KT) (MB)    (FT/S)
NORTHPORT PIER   0540   16        CALM     1010.5F
KEWAUNEE LAKESHO 0530   14     270/  4/  5 1010.5F
SHEBOYGAN LAKESH 0500   17     280/  5/  7 1013.4F
PORT WASHINGTON  0540   18     270/  3/  7 1013.2F
MILWAUKEE LAKESH 0450   19     280/  6/  8   N/A
KENOSHA   LAKESH 0500   19     250/  5/  7 1013.2
$$

TC  - TEMPERATURE IN CELSIUS
VSB - VISIBILITY IN STATUTE MILES
WCI - WIND CHILL INDEX
HX  - HEAT INDEX





USA.gov is the U.S. government's official web portal to all federal, state and local government web resources and services.